COSMOS 1275 DEB, 12700

Orbit data source: Space-Track

COSMOS 1275 DEB, 12700 is space debris in LEO originally from a launch on Thu, 04 Jun 1981 UTC launched from the Plesetsk Missile And Space Complex (PKMTR). Debris objects in space refer to the collection of defunct objects orbiting the Earth. Examples of debris include non-operational satellites, rocket bodies, and fragments generated from explosions, collisions, or faulty payload assembly.

Loading next visibility...
Identifier
12700, 1981-053AU
Orbit
LEO
Country
Flag of CISCIS
Related business
Manufacturer
Unknown
Mission
Spacecraft
Bus & Motor
Unknown
Mass
Unknown
Launch date (UTC)
1981-06-04 (45 years ago)
Launch vehicle
Unknown
Launch site
Plesetsk Missile And Space Complex (PKMTR)
Object type
Payload
Rocket body
Debris
Shape & HBR
Unknown shape, 0.1 m
Radar Cross Section
Medium (>0.1 m² and <1 m²)

Expand to show TLE details & history
Last TLE update: 20 hours ago

TLE from 20 hours ago
0 COSMOS 1275 DEB
1 12700U 81053AU  26149.69454195  .00000936  00000-0  50752-3 0  9992
2 12700  82.7780 243.0518 0049433 179.1563 180.9706 14.10850969284561
Epoch: 2026-05-29T16:40Z
TLE epoch observation values (Epoch: 2026-05-29T16:40:08.424Z)
Latitude
0.00003°
Longitude
105.79546°
Altitude
895.172 km
Speed
7.386 km/s
True Right ascension
16h 12m 12s
True Declination
0° 00' 00"
Sunlit
Object was in full shadow at epoch
Visualization orbit readout
Latitude
Unknown
Longitude
Unknown
Altitude
Unknown
Speed
Unknown
Apparent Right ascension
Unknown
Apparent Declination
Unknown
Sunlit
N/A
Visualization observer readout
Local Sidereal Time
22:09:39
Azimuth
Unknown
Elevation
Unknown
Doppler factor
Unknown
Orbital elements
Apogee altitude
889.315 km
Perigee altitude
817.818 km
Semi-major axis
7,231.704 km
Eccentricity
0.00494
Inclination
82.778°
RAAN
243.0518°
Arg. of periapsis
179.1563°
True anomaly
180.96106°
Mean anomaly
180.9706°
Eccentric anomaly
180.96583°
Mean motion
3.52925 °/min
Orbital period
102 mins
BSTAR
0.00050752
Loading maneuver chart data...
Computing Atmospheric mass density...
Loading historical data...
Loading historical data...
Loading historical data...
Loading historical data...
Loading historical data...
Loading historical data...
Loading historical data...

Documentation

Showing up to 5 results
|